QPF
0.00 0.00 0.00 0.01 0.03 0.04 0.02 0.01 0.02 0.03 0.02 0.03 0.03 0.02 0.02 0.02 0.04 0.06 0.08 0.09 0.06 0.02 0.01 0.01 0.01 0.01 0.01 0.01 0.01 0.00 0.00 0.00 0.00 0.00 0.00 0.01 0.01 0.00 0.00 0.00 0.00 0.01 0.00 0.00 0.00 0.00 0.00 0.00 0.00
0.00 0.00 0.00 0.01 0.02 0.03 0.02 0.02 0.02 0.04 0.04 0.03 0.03 0.02 0.03 0.03 0.02 0.04 0.04 0.05 0.03 0.01 0.01 0.00 0.02 0.02 0.01 0.01 0.02 0.01 0.00 0.00 0.00 0.00 0.00 0.01 0.01 0.00 0.00 0.00 0.00 0.00 0.00 0.00 0.00 0.00 0.00 0.01 0.01
0.00 0.00 0.02 0.02 0.01 0.02 0.02 0.03 0.05 0.08 0.06 0.03 0.02 0.02 0.02 0.03 0.04 0.04 0.05 0.05 0.02 0.02 0.02 0.01 0.01 0.02 0.01 0.01 0.01 0.01 0.01 0.01 0.01 0.00 0.01 0.00 0.01 0.01 0.01 0.01 0.00 0.00 0.00 0.00 0.00 0.00 0.00 0.01 0.01
0.00 0.00 0.02 0.02 0.01 0.01 0.02 0.02 0.02 0.05 0.06 0.02 0.01 0.01 0.01 0.02 0.05 0.05 0.05 0.06 0.03 0.03 0.02 0.01 0.01 0.01 0.02 0.02 0.02 0.02 0.01 0.01 0.01 0.01 0.01 0.01 0.01 0.01 0.01 0.01 0.01 0.01 0.01 0.01 0.01 0.01 0.01 0.01 0.01
0.00 0.01 0.02 0.01 0.01 0.01 0.01 0.01 0.01 0.02 0.05 0.01 0.01 0.01 0.02 0.02 0.03 0.04 0.06 0.06 0.03 0.03 0.02 0.01 0.00 0.01 0.02 0.03 0.02 0.02 0.02 0.01 0.01 0.02 0.01 0.00 0.00 0.00 0.01 0.01 0.01 0.01 0.01 0.02 0.02 0.02 0.02 0.01 0.01
0.00 0.00 0.01 0.01 0.00 0.01 0.01 0.01 0.01 0.01 0.01 0.01 0.01 0.02 0.03 0.02 0.03 0.06 0.10 0.05 0.02 0.01 0.01 0.01 0.00 0.01 0.02 0.03 0.02 0.01 0.01 0.01 0.01 0.01 0.00 0.00 0.00 0.01 0.01 0.01 0.01 0.00 0.01 0.02 0.03 0.04 0.03 0.02 0.01
0.00 0.01 0.01 0.01 0.00 0.01 0.01 0.02 0.01 0.01 0.01 0.01 0.01 0.02 0.02 0.03 0.03 0.05 0.06 0.04 0.03 0.02 0.01 0.01 0.02 0.02 0.03 0.03 0.02 0.01 0.01 0.01 0.01 0.00 0.01 0.01 0.01 0.01 0.01 0.01 0.01 0.01 0.01 0.02 0.02 0.03 0.03 0.02 0.02
0.01 0.01 0.01 0.01 0.01 0.01 0.01 0.01 0.01 0.01 0.01 0.01 0.01 0.01 0.02 0.05 0.07 0.06 0.05 0.03 0.03 0.04 0.04 0.03 0.04 0.03 0.03 0.03 0.03 0.02 0.01 0.01 0.00 0.00 0.01 0.01 0.01 0.01 0.02 0.02 0.01 0.01 0.02 0.03 0.02 0.02 0.02 0.02 0.02
0.01 0.00 0.00 0.01 0.01 0.02 0.02 0.01 0.01 0.01 0.01 0.02 0.01 0.01 0.03 0.05 0.09 0.09 0.09 0.06 0.04 0.04 0.05 0.07 0.06 0.04 0.03 0.03 0.04 0.04 0.02 0.01 0.01 0.01 0.01 0.02 0.01 0.01 0.01 0.01 0.02 0.02 0.02 0.03 0.02 0.02 0.02 0.02 0.02
0.00 0.00 0.01 0.01 0.01 0.02 0.02 0.01 0.01 0.01 0.02 0.04 0.03 0.03 0.02 0.03 0.08 0.09 0.08 0.08 0.05 0.06 0.08 0.08 0.09 0.07 0.05 0.05 0.05 0.05 0.03 0.02 0.01 0.01 0.02 0.02 0.02 0.01 0.01 0.02 0.02 0.02 0.03 0.03 0.03 0.03 0.04 0.03 0.03
0.01 0.01 0.01 0.01 0.02 0.01 0.02 0.01 0.01 0.01 0.02 0.03 0.03 0.02 0.02 0.04 0.06 0.05 0.03 0.04 0.03 0.04 0.07 0.16 0.20 0.12 0.08 0.08 0.07 0.05 0.04 0.03 0.03 0.03 0.03 0.02 0.01 0.01 0.02 0.02 0.01 0.01 0.02 0.02 0.03 0.05 0.04 0.02 0.02
0.01 0.01 0.01 0.02 0.02 0.01 0.01 0.01 0.01 0.02 0.02 0.02 0.04 0.04 0.04 0.05 0.08 0.06 0.05 0.06 0.04 0.04 0.06 0.16 0.22 0.14 0.10 0.12 0.12 0.09 0.07 0.05 0.04 0.04 0.04 0.03 0.02 0.02 0.02 0.02 0.01 0.01 0.01 0.02 0.02 0.03 0.03 0.03 0.03
0.00 0.01 0.02 0.03 0.03 0.01 0.01 0.02 0.01 0.01 0.01 0.03 0.05 0.08 0.07 0.07 0.06 0.07 0.08 0.10 0.16 0.12 0.10 0.13 0.21 0.16 0.11 0.13 0.16 0.13 0.11 0.10 0.06 0.06 0.05 0.04 0.03 0.02 0.02 0.03 0.02 0.01 0.01 0.02 0.03 0.03 0.02 0.03 0.02
0.00 0.01 0.01 0.03 0.03 0.01 0.01 0.02 0.01 0.01 0.01 0.02 0.04 0.07 0.08 0.08 0.07 0.07 0.08 0.11 0.20 0.23 0.18 0.11 0.16 0.22 0.20 0.15 0.12 0.08 0.07 0.10 0.09 0.09 0.08 0.05 0.04 0.03 0.03 0.05 0.05 0.02 0.02 0.03 0.03 0.03 0.03 0.03 0.03
0.00 0.01 0.01 0.02 0.03 0.01 0.01 0.02 0.01 0.01 0.02 0.03 0.05 0.05 0.09 0.09 0.08 0.06 0.07 0.08 0.12 0.18 0.15 0.10 0.10 0.17 0.21 0.17 0.13 0.09 0.08 0.10 0.12 0.14 0.12 0.07 0.04 0.04 0.03 0.03 0.06 0.05 0.04 0.04 0.04 0.04 0.04 0.05 0.05
0.00 0.00 0.01 0.01 0.02 0.01 0.01 0.03 0.03 0.04 0.05 0.05 0.05 0.05 0.06 0.07 0.07 0.06 0.06 0.09 0.11 0.12 0.10 0.08 0.09 0.14 0.18 0.12 0.10 0.10 0.09 0.10 0.11 0.12 0.12 0.10 0.10 0.06 0.04 0.03 0.04 0.04 0.05 0.05 0.05 0.04 0.05 0.05 0.05
0.01 0.00 0.00 0.02 0.02 0.01 0.02 0.02 0.02 0.03 0.06 0.05 0.05 0.05 0.07 0.11 0.11 0.08 0.07 0.10 0.10 0.10 0.10 0.09 0.10 0.11 0.12 0.12 0.08 0.07 0.09 0.15 0.12 0.09 0.09 0.07 0.07 0.06 0.05 0.04 0.03 0.05 0.06 0.07 0.06 0.05 0.06 0.04 0.04
0.01 0.01 0.01 0.02 0.02 0.01 0.02 0.02 0.03 0.03 0.05 0.04 0.04 0.04 0.08 0.12 0.09 0.07 0.07 0.10 0.10 0.08 0.07 0.08 0.09 0.12 0.14 0.11 0.08 0.07 0.10 0.17 0.14 0.13 0.11 0.08 0.06 0.06 0.07 0.06 0.04 0.05 0.07 0.08 0.09 0.08 0.06 0.05 0.04
0.01 0.01 0.01 0.03 0.03 0.01 0.01 0.02 0.04 0.04 0.04 0.05 0.05 0.07 0.12 0.17 0.12 0.05 0.05 0.06 0.09 0.08 0.06 0.06 0.07 0.08 0.12 0.13 0.09 0.07 0.09 0.13 0.11 0.09 0.06 0.06 0.07 0.06 0.06 0.06 0.05 0.05 0.05 0.07 0.08 0.07 0.06 0.05 0.04
0.01 0.01 0.01 0.04 0.05 0.01 0.01 0.03 0.03 0.03 0.03 0.06 0.11 0.14 0.17 0.17 0.09 0.05 0.04 0.04 0.07 0.08 0.06 0.07 0.08 0.07 0.08 0.10 0.10 0.08 0.08 0.08 0.06 0.06 0.05 0.05 0.05 0.05 0.06 0.06 0.06 0.05 0.05 0.06 0.06 0.07 0.06 0.05 0.04
0.01 0.01 0.03 0.06 0.04 0.03 0.03 0.04 0.04 0.05 0.05 0.06 0.12 0.15 0.13 0.08 0.05 0.04 0.04 0.05 0.06 0.07 0.06 0.08 0.07 0.08 0.08 0.10 0.11 0.11 0.10 0.09 0.07 0.07 0.06 0.05 0.05 0.05 0.05 0.06 0.06 0.06 0.06 0.06 0.06 0.08 0.07 0.07 0.07
0.01 0.01 0.02 0.03 0.04 0.03 0.03 0.06 0.06 0.06 0.06 0.06 0.11 0.17 0.14 0.09 0.06 0.05 0.05 0.05 0.06 0.07 0.07 0.10 0.12 0.12 0.11 0.08 0.08 0.09 0.07 0.05 0.05 0.07 0.06 0.05 0.05 0.06 0.06 0.08 0.08 0.07 0.06 0.07 0.09 0.09 0.09 0.08 0.07
0.01 0.01 0.01 0.02 0.03 0.03 0.04 0.05 0.06 0.06 0.06 0.07 0.14 0.21 0.12 0.07 0.04 0.04 0.04 0.05 0.05 0.06 0.09 0.11 0.13 0.13 0.11 0.09 0.09 0.08 0.06 0.06 0.07 0.07 0.06 0.06 0.06 0.06 0.06 0.07 0.08 0.08 0.10 0.12 0.12 0.11 0.10 0.08 0.05
0.00 0.00 0.01 0.02 0.04 0.05 0.04 0.05 0.05 0.05 0.05 0.07 0.09 0.10 0.08 0.06 0.05 0.04 0.04 0.05 0.05 0.07 0.10 0.15 0.15 0.13 0.14 0.13 0.12 0.12 0.10 0.09 0.07 0.07 0.07 0.07 0.07 0.06 0.05 0.06 0.06 0.08 0.09 0.10 0.10 0.08 0.07 0.06 0.05
0.01 0.01 0.02 0.03 0.05 0.09 0.06 0.05 0.04 0.03 0.06 0.07 0.06 0.06 0.11 0.11 0.08 0.04 0.04 0.07 0.07 0.09 0.13 0.13 0.13 0.13 0.14 0.13 0.13 0.15 0.14 0.11 0.11 0.11 0.09 0.08 0.08 0.07 0.05 0.06 0.05 0.04 0.04 0.05 0.05 0.05 0.05 0.06 0.05
0.01 0.02 0.03 0.05 0.04 0.05 0.06 0.04 0.04 0.03 0.03 0.05 0.05 0.06 0.09 0.14 0.11 0.06 0.06 0.12 0.09 0.08 0.12 0.12 0.09 0.11 0.14 0.14 0.12 0.13 0.13 0.12 0.11 0.10 0.09 0.06 0.05 0.04 0.04 0.04 0.04 0.03 0.04 0.04 0.05 0.07 0.07 0.06 0.05
0.01 0.02 0.02 0.04 0.04 0.05 0.06 0.05 0.07 0.04 0.04 0.04 0.04 0.05 0.06 0.10 0.11 0.09 0.11 0.16 0.10 0.07 0.09 0.09 0.09 0.09 0.10 0.10 0.10 0.08 0.08 0.07 0.07 0.09 0.09 0.05 0.04 0.05 0.04 0.04 0.03 0.04 0.04 0.04 0.05 0.07 0.07 0.06 0.06
0.01 0.02 0.03 0.03 0.05 0.06 0.06 0.07 0.10 0.07 0.06 0.07 0.06 0.05 0.05 0.08 0.10 0.09 0.09 0.08 0.08 0.06 0.10 0.15 0.13 0.07 0.07 0.06 0.06 0.05 0.05 0.06 0.07 0.07 0.06 0.05 0.04 0.04 0.04 0.04 0.03 0.03 0.03 0.04 0.06 0.07 0.07 0.07 0.07
0.01 0.02 0.03 0.03 0.02 0.03 0.04 0.05 0.06 0.07 0.08 0.08 0.06 0.06 0.06 0.06 0.08 0.06 0.05 0.03 0.05 0.06 0.08 0.08 0.11 0.10 0.07 0.07 0.07 0.06 0.05 0.05 0.05 0.04 0.05 0.05 0.07 0.06 0.05 0.03 0.02 0.02 0.03 0.04 0.05 0.06 0.07 0.07 0.07
0.01 0.02 0.03 0.03 0.02 0.02 0.04 0.04 0.04 0.09 0.14 0.13 0.06 0.04 0.05 0.06 0.07 0.05 0.04 0.03 0.04 0.06 0.06 0.05 0.05 0.07 0.06 0.06 0.09 0.06 0.04 0.05 0.06 0.08 0.07 0.06 0.05 0.03 0.03 0.03 0.03 0.03 0.03 0.04 0.04 0.04 0.06 0.08 0.08
MSLP
1008.33 1009.42 1010.68 1011.87 1012.75 1013.14 1012.97 1012.25 1011.15 1009.88 1008.67 1007.72 1007.15 1006.94 1007.03 1007.26 1007.47 1007.55 1007.42 1007.13 1006.75 1006.41 1006.22 1006.25 1006.54 1007.00 1007.56 1008.10 1008.55 1008.86 1009.05 1009.16 1009.29 1009.48 1009.79 1010.20 1010.68 1011.17 1011.60 1011.94 1012.17 1012.32 1012.45 1012.59 1012.78 1013.05 1013.36 1013.70 1014.01
1008.70 1009.99 1011.32 1012.44 1013.11 1013.19 1012.64 1011.55 1010.13 1008.61 1007.25 1006.24 1005.67 1005.53 1005.70 1006.02 1006.32 1006.47 1006.43 1006.23 1005.96 1005.75 1005.69 1005.86 1006.27 1006.84 1007.47 1008.07 1008.56 1008.91 1009.12 1009.27 1009.42 1009.64 1009.95 1010.36 1010.81 1011.25 1011.63 1011.92 1012.12 1012.26 1012.40 1012.57 1012.80 1013.11 1013.47 1013.83 1014.15
1009.27 1010.69 1012.03 1013.01 1013.43 1013.18 1012.29 1010.89 1009.20 1007.51 1006.06 1005.04 1004.50 1004.41 1004.63 1004.99 1005.32 1005.49 1005.49 1005.34 1005.15 1005.03 1005.10 1005.39 1005.91 1006.58 1007.29 1007.95 1008.48 1008.86 1009.11 1009.29 1009.46 1009.69 1010.01 1010.40 1010.82 1011.22 1011.57 1011.83 1012.01 1012.17 1012.33 1012.55 1012.84 1013.20 1013.60 1013.98 1014.31
1010.00 1011.47 1012.72 1013.52 1013.68 1013.15 1011.98 1010.35 1008.51 1006.74 1005.29 1004.30 1003.82 1003.77 1004.01 1004.37 1004.67 1004.82 1004.80 1004.66 1004.51 1004.47 1004.62 1005.01 1005.61 1006.35 1007.11 1007.81 1008.37 1008.77 1009.04 1009.24 1009.43 1009.68 1009.99 1010.37 1010.77 1011.15 1011.47 1011.71 1011.91 1012.09 1012.30 1012.57 1012.92 1013.33 1013.76 1014.15 1014.48
1010.78 1012.20 1013.31 1013.89 1013.80 1013.03 1011.68 1009.94 1008.07 1006.35 1005.00 1004.11 1003.71 1003.71 1003.95 1004.26 1004.50 1004.58 1004.51 1004.35 1004.22 1004.22 1004.43 1004.87 1005.52 1006.29 1007.06 1007.75 1008.30 1008.69 1008.96 1009.17 1009.38 1009.63 1009.95 1010.33 1010.72 1011.08 1011.39 1011.64 1011.85 1012.07 1012.32 1012.64 1013.03 1013.47 1013.91 1014.31 1014.63
1011.47 1012.75 1013.65 1013.99 1013.68 1012.75 1011.31 1009.59 1007.84 1006.28 1005.11 1004.40 1004.12 1004.17 1004.41 1004.66 1004.82 1004.82 1004.69 1004.50 1004.37 1004.39 1004.63 1005.09 1005.74 1006.48 1007.20 1007.83 1008.33 1008.68 1008.92 1009.12 1009.34 1009.61 1009.94 1010.32 1010.71 1011.07 1011.38 1011.63 1011.86 1012.09 1012.37 1012.71 1013.12 1013.57 1014.01 1014.40 1014.70
1011.95 1013.00 1013.63 1013.72 1013.22 1012.19 1010.78 1009.20 1007.66 1006.38 1005.47 1004.98 1004.85 1004.98 1005.22 1005.43 1005.51 1005.44 1005.27 1005.06 1004.94 1004.97 1005.22 1005.67 1006.27 1006.93 1007.56 1008.09 1008.48 1008.76 1008.95 1009.13 1009.35 1009.63 1009.98 1010.37 1010.76 1011.12 1011.43 1011.68 1011.90 1012.13 1012.41 1012.75 1013.15 1013.59 1014.01 1014.37 1014.65
1012.13 1012.89 1013.22 1013.05 1012.39 1011.34 1010.03 1008.67 1007.43 1006.47 1005.88 1005.64 1005.68 1005.90 1006.15 1006.33 1006.37 1006.26 1006.08 1005.89 1005.79 1005.85 1006.10 1006.51 1007.03 1007.58 1008.07 1008.46 1008.73 1008.91 1009.05 1009.20 1009.41 1009.71 1010.08 1010.48 1010.88 1011.23 1011.52 1011.74 1011.94 1012.15 1012.40 1012.71 1013.09 1013.49 1013.89 1014.23 1014.49
1012.03 1012.45 1012.46 1012.06 1011.28 1010.24 1009.09 1007.99 1007.08 1006.48 1006.20 1006.20 1006.41 1006.71 1006.98 1007.15 1007.18 1007.08 1006.92 1006.78 1006.74 1006.84 1007.08 1007.45 1007.88 1008.29 1008.63 1008.87 1009.02 1009.10 1009.18 1009.32 1009.54 1009.85 1010.23 1010.64 1011.03 1011.36 1011.61 1011.80 1011.95 1012.11 1012.31 1012.59 1012.92 1013.29 1013.67 1013.99 1014.25
1011.70 1011.80 1011.51 1010.90 1010.03 1009.05 1008.08 1007.25 1006.67 1006.39 1006.39 1006.60 1006.94 1007.30 1007.59 1007.76 1007.79 1007.73 1007.63 1007.57 1007.60 1007.75 1008.00 1008.32 1008.66 1008.94 1009.14 1009.24 1009.28 1009.29 1009.33 1009.46 1009.69 1010.02 1010.42 1010.83 1011.20 1011.49 1011.69 1011.82 1011.91 1012.01 1012.16 1012.39 1012.69 1013.03 1013.39 1013.72 1013.99
1011.29 1011.09 1010.56 1009.78 1008.88 1007.97 1007.19 1006.63 1006.33 1006.31 1006.52 1006.87 1007.28 1007.65 1007.93 1008.09 1008.14 1008.12 1008.10 1008.13 1008.23 1008.43 1008.69 1008.97 1009.23 1009.40 1009.49 1009.49 1009.46 1009.43 1009.47 1009.61 1009.87 1010.23 1010.63 1011.02 1011.36 1011.60 1011.74 1011.81 1011.84 1011.88 1011.99 1012.17 1012.45 1012.78 1013.14 1013.48 1013.77
1010.93 1010.49 1009.78 1008.91 1008.02 1007.23 1006.64 1006.29 1006.22 1006.38 1006.71 1007.12 1007.52 1007.85 1008.08 1008.21 1008.25 1008.27 1008.30 1008.40 1008.57 1008.81 1009.07 1009.32 1009.50 1009.61 1009.62 1009.58 1009.52 1009.51 1009.58 1009.77 1010.07 1010.44 1010.84 1011.21 1011.50 1011.69 1011.76 1011.77 1011.75 1011.75 1011.83 1012.00 1012.26 1012.59 1012.96 1013.33 1013.66
1010.70 1010.12 1009.32 1008.44 1007.62 1006.97 1006.56 1006.40 1006.49 1006.75 1007.11 1007.49 1007.81 1008.05 1008.17 1008.22 1008.23 1008.24 1008.31 1008.44 1008.64 1008.88 1009.12 1009.34 1009.48 1009.54 1009.54 1009.51 1009.49 1009.54 1009.68 1009.93 1010.27 1010.67 1011.06 1011.39 1011.62 1011.75 1011.77 1011.73 1011.67 1011.66 1011.73 1011.90 1012.17 1012.52 1012.91 1013.29 1013.65
1010.64 1010.00 1009.20 1008.39 1007.71 1007.23 1007.00 1007.01 1007.20 1007.50 1007.82 1008.09 1008.28 1008.35 1008.34 1008.27 1008.20 1008.17 1008.21 1008.32 1008.50 1008.71 1008.92 1009.09 1009.20 1009.26 1009.28 1009.31 1009.38 1009.53 1009.78 1010.11 1010.50 1010.90 1011.27 1011.55 1011.72 1011.79 1011.76 1011.70 1011.64 1011.64 1011.72 1011.91 1012.20 1012.56 1012.96 1013.35 1013.71
1010.68 1010.05 1009.34 1008.68 1008.19 1007.92 1007.88 1008.02 1008.28 1008.57 1008.80 1008.94 1008.94 1008.84 1008.65 1008.45 1008.26 1008.15 1008.12 1008.17 1008.28 1008.42 1008.56 1008.68 1008.77 1008.85 1008.93 1009.06 1009.26 1009.53 1009.89 1010.31 1010.74 1011.14 1011.46 1011.68 1011.79 1011.81 1011.76 1011.69 1011.65 1011.68 1011.80 1012.02 1012.33 1012.69 1013.07 1013.45 1013.80
1010.71 1010.16 1009.59 1009.14 1008.88 1008.84 1008.99 1009.27 1009.58 1009.83 1009.96 1009.93 1009.76 1009.47 1009.12 1008.77 1008.47 1008.25 1008.12 1008.07 1008.08 1008.12 1008.17 1008.23 1008.30 1008.40 1008.57 1008.81 1009.15 1009.57 1010.04 1010.53 1010.99 1011.37 1011.64 1011.80 1011.85 1011.82 1011.75 1011.70 1011.69 1011.77 1011.94 1012.19 1012.51 1012.86 1013.21 1013.55 1013.84
1010.62 1010.18 1009.80 1009.59 1009.59 1009.79 1010.14 1010.54 1010.89 1011.10 1011.12 1010.95 1010.61 1010.17 1009.67 1009.20 1008.79 1008.47 1008.24 1008.08 1007.97 1007.89 1007.84 1007.83 1007.88 1008.02 1008.26 1008.62 1009.10 1009.64 1010.22 1010.77 1011.24 1011.59 1011.80 1011.89 1011.88 1011.82 1011.75 1011.73 1011.78 1011.91 1012.13 1012.41 1012.72 1013.04 1013.34 1013.60 1013.83
1010.35 1010.03 1009.86 1009.91 1010.17 1010.62 1011.15 1011.66 1012.04 1012.21 1012.14 1011.85 1011.38 1010.81 1010.21 1009.66 1009.17 1008.78 1008.46 1008.20 1007.98 1007.79 1007.64 1007.56 1007.58 1007.74 1008.06 1008.53 1009.11 1009.77 1010.43 1011.02 1011.49 1011.80 1011.95 1011.98 1011.92 1011.84 1011.78 1011.80 1011.90 1012.09 1012.35 1012.64 1012.94 1013.21 1013.44 1013.63 1013.78
1009.86 1009.70 1009.74 1010.04 1010.57 1011.25 1011.95 1012.55 1012.95 1013.08 1012.92 1012.53 1011.96 1011.31 1010.66 1010.07 1009.55 1009.13 1008.76 1008.43 1008.11 1007.83 1007.59 1007.45 1007.44 1007.62 1007.99 1008.53 1009.21 1009.95 1010.66 1011.28 1011.73 1012.01 1012.11 1012.09 1012.00 1011.91 1011.87 1011.93 1012.08 1012.32 1012.61 1012.91 1013.18 1013.40 1013.56 1013.67 1013.74
1009.22 1009.21 1009.49 1010.04 1010.82 1011.70 1012.54 1013.21 1013.61 1013.69 1013.45 1012.97 1012.34 1011.64 1010.98 1010.38 1009.89 1009.47 1009.09 1008.73 1008.37 1008.02 1007.72 1007.52 1007.49 1007.67 1008.06 1008.66 1009.39 1010.18 1010.92 1011.55 1011.99 1012.24 1012.31 1012.26 1012.15 1012.07 1012.06 1012.16 1012.36 1012.64 1012.95 1013.24 1013.48 1013.65 1013.74 1013.78 1013.80
1008.49 1008.68 1009.20 1010.01 1011.01 1012.07 1013.02 1013.74 1014.12 1014.13 1013.81 1013.24 1012.55 1011.83 1011.17 1010.61 1010.16 1009.79 1009.45 1009.10 1008.73 1008.35 1008.01 1007.78 1007.72 1007.89 1008.29 1008.90 1009.66 1010.47 1011.23 1011.86 1012.29 1012.53 1012.58 1012.53 1012.43 1012.37 1012.39 1012.52 1012.76 1013.06 1013.38 1013.66 1013.87 1014.00 1014.04 1014.04 1014.02
1007.77 1008.20 1008.97 1010.04 1011.26 1012.48 1013.52 1014.25 1014.59 1014.52 1014.10 1013.46 1012.71 1011.96 1011.32 1010.80 1010.42 1010.11 1009.83 1009.53 1009.19 1008.82 1008.47 1008.22 1008.14 1008.29 1008.68 1009.28 1010.04 1010.84 1011.60 1012.23 1012.67 1012.90 1012.97 1012.93 1012.86 1012.82 1012.87 1013.04 1013.29 1013.60 1013.91 1014.17 1014.36 1014.46 1014.48 1014.46 1014.44
1007.12 1007.81 1008.87 1010.19 1011.62 1012.98 1014.09 1014.83 1015.12 1014.96 1014.45 1013.72 1012.90 1012.13 1011.49 1011.02 1010.69 1010.46 1010.26 1010.02 1009.73 1009.40 1009.07 1008.82 1008.73 1008.86 1009.22 1009.80 1010.53 1011.31 1012.06 1012.69 1013.13 1013.39 1013.49 1013.48 1013.44 1013.44 1013.52 1013.69 1013.94 1014.24 1014.53 1014.77 1014.93 1015.01 1015.03 1015.03 1015.03
1006.57 1007.54 1008.87 1010.44 1012.06 1013.55 1014.73 1015.47 1015.72 1015.48 1014.89 1014.08 1013.21 1012.41 1011.76 1011.31 1011.04 1010.87 1010.74 1010.58 1010.36 1010.08 1009.79 1009.56 1009.48 1009.59 1009.92 1010.46 1011.14 1011.90 1012.62 1013.24 1013.70 1013.98 1014.12 1014.16 1014.16 1014.19 1014.28 1014.45 1014.68 1014.94 1015.20 1015.40 1015.55 1015.62 1015.65 1015.67 1015.72
1006.08 1007.33 1008.91 1010.70 1012.49 1014.10 1015.34 1016.09 1016.31 1016.04 1015.39 1014.53 1013.62 1012.79 1012.14 1011.70 1011.46 1011.35 1011.28 1011.20 1011.05 1010.84 1010.61 1010.42 1010.35 1010.45 1010.75 1011.25 1011.88 1012.59 1013.29 1013.89 1014.36 1014.67 1014.85 1014.93 1014.97 1015.02 1015.11 1015.26 1015.45 1015.67 1015.87 1016.04 1016.15 1016.22 1016.27 1016.32 1016.41
1005.64 1007.10 1008.89 1010.84 1012.77 1014.46 1015.76 1016.54 1016.78 1016.51 1015.86 1015.00 1014.08 1013.25 1012.60 1012.18 1011.96 1011.88 1011.87 1011.85 1011.78 1011.65 1011.49 1011.36 1011.32 1011.42 1011.70 1012.15 1012.73 1013.39 1014.04 1014.62 1015.09 1015.42 1015.63 1015.75 1015.81 1015.87 1015.95 1016.07 1016.22 1016.37 1016.52 1016.63 1016.71 1016.77 1016.82 1016.89 1017.01
1005.22 1006.82 1008.72 1010.76 1012.75 1014.50 1015.85 1016.68 1016.98 1016.76 1016.18 1015.37 1014.50 1013.71 1013.09 1012.68 1012.48 1012.43 1012.46 1012.50 1012.51 1012.46 1012.39 1012.32 1012.33 1012.46 1012.73 1013.14 1013.67 1014.26 1014.86 1015.40 1015.86 1016.19 1016.42 1016.56 1016.65 1016.71 1016.77 1016.85 1016.94 1017.03 1017.11 1017.17 1017.21 1017.24 1017.29 1017.37 1017.49
1004.84 1006.47 1008.38 1010.41 1012.38 1014.14 1015.51 1016.40 1016.79 1016.69 1016.24 1015.56 1014.80 1014.10 1013.54 1013.17 1012.99 1012.97 1013.03 1013.12 1013.20 1013.24 1013.26 1013.28 1013.35 1013.51 1013.78 1014.16 1014.64 1015.17 1015.71 1016.20 1016.62 1016.95 1017.18 1017.33 1017.43 1017.49 1017.54 1017.58 1017.62 1017.65 1017.67 1017.67 1017.66 1017.66 1017.68 1017.74 1017.85
1004.55 1006.09 1007.88 1009.79 1011.67 1013.36 1014.73 1015.68 1016.19 1016.26 1015.99 1015.50 1014.92 1014.35 1013.90 1013.59 1013.45 1013.45 1013.54 1013.68 1013.82 1013.95 1014.06 1014.18 1014.32 1014.53 1014.82 1015.18 1015.61 1016.08 1016.55 1016.98 1017.36 1017.66 1017.88 1018.04 1018.14 1018.20 1018.24 1018.26 1018.26 1018.24 1018.21 1018.16 1018.11 1018.06 1018.05 1018.07 1018.14
1004.40 1005.74 1007.32 1009.02 1010.72 1012.29 1013.62 1014.61 1015.24 1015.51 1015.47 1015.22 1014.85 1014.47 1014.14 1013.92 1013.84 1013.86 1013.98 1014.16 1014.36 1014.56 1014.77 1014.98 1015.21 1015.48 1015.79 1016.15 1016.54 1016.94 1017.34 1017.71 1018.04 1018.30 1018.51 1018.67 1018.78 1018.85 1018.89 1018.90 1018.88 1018.83 1018.76 1018.68 1018.58 1018.50 1018.43 1018.40 1018.41
Thickness
5800 5801 5799 5788 5765 5746 5746 5764 5783 5789 5796 5807 5811 5806 5796 5789 5780 5773 5799 5809 5806 5803 5799 5797 5796 5795 5794 5792 5789 5787 5785 5783 5781 5779 5777 5775 5773 5771 5769 5767 5765 5764 5762 5760 5758 5757 5755 5754 5752
5798 5798 5789 5772 5747 5731 5742 5770 5781 5791 5801 5809 5808 5804 5796 5791 5798 5797 5801 5805 5806 5802 5798 5796 5794 5792 5791 5789 5787 5785 5782 5780 5778 5776 5774 5772 5770 5768 5766 5764 5762 5761 5759 5758 5756 5754 5753 5752 5750
5797 5795 5774 5756 5742 5735 5750 5774 5783 5796 5807 5808 5800 5801 5796 5791 5798 5800 5804 5804 5802 5799 5795 5793 5792 5790 5788 5786 5784 5782 5780 5778 5776 5774 5772 5770 5767 5765 5764 5762 5760 5758 5757 5755 5753 5752 5750 5749 5748
5789 5777 5765 5746 5743 5755 5766 5779 5789 5792 5800 5806 5800 5791 5795 5804 5804 5805 5805 5804 5800 5795 5793 5791 5789 5787 5786 5784 5781 5779 5777 5775 5773 5771 5769 5767 5765 5763 5761 5759 5758 5756 5754 5752 5750 5749 5748 5746 5745
5781 5762 5746 5736 5746 5765 5779 5789 5794 5791 5793 5799 5797 5784 5784 5800 5806 5805 5802 5800 5795 5791 5789 5788 5787 5785 5783 5781 5779 5777 5774 5772 5770 5768 5766 5764 5762 5760 5759 5757 5755 5754 5752 5750 5748 5747 5745 5744 5742
5762 5750 5732 5728 5746 5767 5780 5790 5792 5790 5789 5793 5790 5779 5778 5795 5798 5797 5798 5794 5792 5788 5786 5784 5783 5781 5780 5778 5776 5774 5772 5769 5767 5765 5763 5761 5759 5757 5755 5754 5752 5751 5749 5748 5746 5745 5743 5742 5740
5753 5742 5732 5739 5747 5761 5778 5788 5786 5784 5784 5788 5792 5775 5775 5786 5793 5795 5794 5790 5787 5784 5781 5780 5779 5777 5776 5774 5772 5770 5768 5766 5764 5762 5760 5758 5756 5754 5752 5751 5750 5748 5747 5746 5744 5742 5741 5740 5738
5762 5744 5738 5741 5748 5757 5778 5785 5787 5784 5781 5793 5792 5772 5769 5781 5790 5790 5787 5783 5780 5777 5776 5775 5774 5773 5772 5770 5768 5767 5765 5763 5761 5759 5757 5755 5753 5751 5750 5748 5747 5746 5744 5743 5742 5740 5739 5738 5736
5767 5737 5729 5742 5750 5759 5776 5777 5783 5788 5783 5784 5786 5783 5784 5787 5785 5781 5775 5772 5771 5771 5770 5770 5769 5767 5766 5766 5765 5763 5761 5759 5757 5755 5753 5752 5750 5748 5746 5745 5744 5742 5741 5740 5738 5737 5736 5735 5734
5754 5730 5741 5760 5765 5765 5772 5774 5777 5774 5769 5770 5774 5780 5783 5781 5778 5773 5768 5764 5764 5764 5764 5764 5764 5763 5762 5762 5760 5758 5757 5755 5753 5752 5750 5748 5746 5744 5743 5741 5740 5739 5738 5736 5735 5734 5733 5732 5731
5755 5745 5757 5766 5771 5772 5769 5771 5776 5766 5757 5764 5766 5770 5774 5773 5770 5768 5765 5763 5762 5761 5760 5760 5760 5759 5757 5757 5755 5754 5752 5751 5749 5748 5746 5744 5742 5740 5739 5738 5737 5735 5734 5733 5732 5731 5730 5729 5728
5755 5759 5765 5767 5773 5770 5768 5768 5765 5764 5765 5775 5775 5773 5771 5766 5764 5763 5761 5759 5759 5757 5755 5755 5755 5754 5753 5752 5751 5750 5748 5746 5745 5744 5743 5741 5738 5736 5735 5733 5733 5731 5730 5729 5728 5727 5726 5726 5724
5752 5756 5765 5769 5770 5769 5768 5763 5761 5761 5771 5775 5774 5769 5766 5762 5761 5760 5759 5758 5755 5752 5751 5749 5750 5749 5749 5749 5747 5746 5744 5741 5741 5739 5738 5737 5734 5732 5731 5729 5728 5727 5726 5725 5724 5723 5722 5721 5720
5755 5757 5761 5764 5766 5767 5760 5758 5756 5757 5767 5766 5764 5761 5760 5757 5756 5755 5752 5751 5750 5747 5746 5746 5745 5745 5745 5744 5743 5742 5740 5737 5736 5735 5733 5732 5730 5729 5727 5726 5725 5724 5723 5722 5721 5719 5718 5717 5716
5757 5749 5750 5756 5760 5761 5757 5744 5750 5758 5762 5756 5755 5755 5755 5751 5751 5751 5750 5748 5747 5745 5743 5743 5742 5742 5740 5739 5739 5738 5736 5734 5732 5730 5729 5728 5727 5726 5724 5722 5722 5721 5720 5719 5717 5715 5714 5713 5712
5745 5735 5728 5747 5755 5758 5743 5725 5748 5756 5754 5748 5749 5750 5749 5746 5747 5748 5749 5747 5745 5743 5740 5741 5741 5738 5736 5735 5734 5734 5733 5731 5728 5726 5725 5724 5723 5722 5720 5718 5718 5717 5716 5714 5712 5710 5708 5707 5706
5725 5716 5721 5736 5753 5751 5738 5726 5743 5752 5749 5743 5743 5744 5744 5741 5741 5743 5745 5744 5742 5740 5736 5734 5736 5734 5733 5732 5730 5729 5728 5726 5724 5722 5721 5720 5719 5718 5716 5714 5713 5713 5711 5709 5708 5705 5703 5701 5700
5713 5716 5722 5727 5743 5743 5731 5729 5737 5743 5743 5737 5737 5739 5738 5736 5735 5738 5738 5739 5738 5736 5733 5732 5731 5730 5729 5727 5725 5723 5722 5721 5719 5718 5717 5716 5715 5714 5712 5709 5708 5707 5705 5703 5702 5699 5698 5696 5695
5730 5724 5721 5730 5745 5735 5727 5724 5729 5736 5735 5732 5731 5733 5734 5733 5733 5734 5733 5734 5732 5729 5728 5726 5725 5724 5724 5722 5720 5717 5715 5715 5714 5714 5713 5712 5711 5710 5707 5705 5703 5701 5699 5697 5696 5694 5692 5690 5689
5732 5722 5722 5731 5742 5735 5722 5720 5728 5731 5731 5731 5728 5728 5729 5727 5727 5728 5728 5728 5726 5725 5724 5723 5722 5721 5722 5721 5719 5716 5713 5711 5711 5710 5709 5708 5707 5705 5703 5701 5698 5696 5694 5692 5691 5688 5685 5684 5683
5731 5724 5725 5725 5732 5732 5720 5710 5718 5725 5728 5729 5728 5727 5726 5725 5724 5724 5724 5724 5723 5721 5721 5723 5721 5720 5719 5718 5715 5712 5708 5706 5704 5703 5703 5703 5703 5701 5699 5697 5695 5693 5690 5687 5686 5685 5681 5677 5677
5726 5742 5739 5732 5717 5706 5713 5688 5707 5715 5717 5720 5720 5720 5722 5723 5722 5721 5721 5720 5720 5720 5720 5720 5719 5717 5716 5714 5711 5707 5703 5700 5700 5699 5698 5698 5698 5696 5695 5693 5691 5689 5686 5684 5683 5681 5678 5675 5671
5739 5747 5739 5731 5715 5703 5705 5689 5696 5709 5707 5712 5716 5717 5719 5720 5720 5719 5720 5719 5718 5718 5717 5717 5714 5713 5712 5710 5708 5704 5701 5698 5696 5695 5694 5693 5692 5692 5690 5689 5687 5684 5683 5681 5679 5677 5675 5672 5668
5750 5738 5729 5717 5701 5685 5697 5689 5688 5698 5706 5710 5713 5716 5716 5716 5716 5717 5718 5717 5715 5714 5713 5712 5710 5708 5708 5706 5704 5701 5698 5695 5692 5690 5688 5687 5686 5686 5685 5685 5683 5681 5679 5677 5676 5674 5671 5668 5665
5738 5709 5687 5683 5676 5680 5700 5692 5689 5707 5714 5714 5713 5712 5713 5713 5713 5712 5711 5710 5709 5707 5706 5706 5705 5703 5703 5702 5700 5698 5696 5693 5690 5687 5685 5683 5682 5681 5681 5681 5679 5677 5676 5675 5673 5670 5668 5665 5662
5729 5712 5685 5673 5672 5680 5694 5687 5696 5712 5716 5717 5715 5713 5712 5710 5710 5709 5708 5707 5706 5704 5702 5702 5700 5698 5698 5697 5696 5694 5693 5690 5688 5685 5683 5681 5680 5679 5678 5677 5676 5674 5673 5672 5670 5667 5664 5662 5659
5726 5715 5713 5691 5685 5675 5681 5691 5700 5710 5710 5710 5710 5708 5706 5707 5707 5707 5706 5704 5703 5702 5700 5699 5697 5695 5694 5693 5691 5690 5689 5687 5685 5683 5681 5679 5678 5677 5676 5674 5673 5671 5670 5668 5666 5663 5660 5657 5655
5738 5726 5703 5687 5674 5667 5677 5682 5684 5696 5698 5703 5703 5703 5703 5703 5703 5704 5704 5703 5701 5699 5698 5696 5694 5691 5690 5688 5687 5686 5685 5684 5682 5680 5677 5676 5675 5674 5672 5671 5669 5668 5666 5664 5661 5659 5657 5654 5650
5727 5721 5706 5689 5685 5671 5664 5676 5706 5703 5702 5701 5702 5704 5703 5701 5701 5701 5700 5700 5699 5696 5694 5692 5689 5688 5686 5684 5683 5682 5681 5680 5678 5676 5675 5674 5672 5670 5668 5667 5665 5664 5662 5660 5658 5655 5653 5649 5646
5732 5722 5706 5687 5684 5680 5669 5678 5713 5709 5706 5703 5703 5704 5703 5702 5700 5698 5697 5696 5696 5694 5692 5690 5688 5686 5685 5683 5681 5679 5678 5677 5674 5673 5672 5671 5669 5667 5665 5664 5662 5660 5659 5657 5654 5651 5648 5645 5641